Regional Weather Roundup
Issued by NWS Charleston, SC

Current Version | Previous Version | Graphics & Text | Print | Product List | Glossary On
Versions: 1 2 3 4 5 6 7 8 9 10 11 12 13 14 15 16 17 18 19 20 21 22 23 24 25 26 27 28 29 30 31 32 33 34 35 36 37 38 39 40 41 42 43 44 45 46 47 48 49 50
000 ASUS42 KCHS 022212 RWRCHS REGIONAL WEATHER ROUNDUP NATIONAL WEATHER SERVICE CHARLESTON SC 500 PM EST FRI DEC 02 2016 NOTE: "FAIR" INDICATES FEW OR NO CLOUDS BELOW 12,000 FEET WITH NO SIGNIFICANT WEATHER AND/OR OBSTRUCTIONS TO VISIBILITY. NOT ALL STATIONS ARE QUALITY CONTROLLED. USE DATA WITH CAUTION... ESPECIALLY DEWPOINT OBSERVATIONS. SCZ027-030-031-034>040-042>050-022300- ...SOUTHEAST SOUTH CAROLINA... CITY SKY/WX TMP DP RH WIND PRES REMARKS N CHARLESTON PTCLDY 57 34 41 N7 30.15R WATERFRONT PRK N/A 61 37 41 N7 30.13R MOUNT PLEASANT NOT AVBL JOHNS ISLAND FAIR 59 37 44 CALM 30.15R PINOPOLIS N/A 57 39 51 NW12 30.06R MONCKS CORNER FAIR 55 34 44 CALM 30.15S SUMMERVILLE FAIR 59 36 41 CALM 30.16S BEAUFORT MCAS CLEAR 58 37 45 W5 30.16R BEAUFORT ARPT FAIR 59 37 44 NW6 30.16R HILTON HEAD IS CLEAR 59 37 44 NW7 30.17R WALTERBORO CLEAR 59 34 38 NW3 30.16S ALLENDALE FAIR 57 36 44 CALM 30.15S ...SOUTHERN MIDLANDS AND PEE DEE... CITY SKY/WX TMP DP RH WIND PRES REMARKS GEORGETOWN NOT AVBL KINGSTREE FAIR 54 34 47 W5 30.14F ORANGEBURG CLEAR 58 31 35 NW5 30.15S BARNWELL NOT AVBL AIKEN FAIR 54 32 43 CALM 30.20R MANNING NOT AVBL COLUMBIA PTCLDY 57 32 38 W8 30.15S SUMTER CLEAR 56 31 38 W6 30.13S FLORENCE CLEAR 56 34 43 W5 30.14S MYRTLE BEACH CLEAR 57 32 38 NW7 30.15R N MYRTLE BEACH CLEAR 56 34 43 NW3 30.13R $$ GAZ063-065-086>088-099>101-113>116-118-119-134>141-150-022300- ...SOUTHEAST GEORGIA... CITY SKY/WX TMP DP RH WIND PRES REMARKS SAVANNAH ARPT PTCLDY 59 35 40 N8 30.17R HUNTER AAF CLEAR 60 41 49 NW9 30.14R FORT STEWART CLEAR 60 36 41 CALM 30.15R STATESBORO CLEAR 58 40 50 NW3 30.17S SYLVANIA CLEAR N/A N/A N/A N3 30.17S CLAXTON FAIR 60 37 42 NW3 30.17S ...CSRA...CENTRAL AND FAR SOUTHEAST GEORGIA... CITY SKY/WX TMP DP RH WIND PRES REMARKS THOMSON CLEAR 61 34 36 CALM 30.22R AUGUSTA-BUSH CLEAR 61 31 32 N6 30.17R AUGUSTA-DANIEL CLEAR 60 30 32 N3 30.17S SWAINSBORO FAIR 61 30 31 NW3 30.19R VIDALIA CLEAR 61 37 41 N3 30.17S EASTMAN FAIR 63 -3 7 CALM 30.22R HAZE HAZLEHURST FAIR 63 33 32 CALM 30.17R ALMA CLEAR 61 32 33 N6 30.17R WAYCROSS CLEAR 64 37 38 N5 30.17R JESUP FAIR 63 39 42 N5 30.17R BAXLEY FAIR 63 36 36 N3 30.18R BRUNSWICK CLEAR 63 41 45 CALM 30.17R SAINT SIMONS CLEAR 63 37 38 N5 30.15R $$ SCZ027-028-034-036>038-045-046-048>050-GAZ119-141-022300- ...LAKE AND SUPPLEMENTAL COASTAL OBSERVATIONS... STATION/POSITION TIME TEMP WIND PRES WAVE SWELL AIR SEA DIR/SP/G HT/PER HT/PER/DIR (UTC) (F) (DEG/KT/KT) (MB) (FT/S) (FT/S/D) WINYAH BAY 2045 58 320/ 6 1020.0 LAKE MURRAY 2120 60 280/ 7/ 11 1020.3 ACE BASIN NERRS 2045 60 330/ 3 1020.0 FORT PULASKI 2118 60 63 360/ 8/ 9 1021.0 SAPELO ISLAND 2100 65 340/ 7 1021.0 $$ ANZ835-935-AMZ111-154-330-350-352-354-370-450-454-472-022300- ...C-MAN AND BUOY OBSERVATIONS... STATION/POSITION TIME TEMP WIND PRES WAVE SWELL AIR SEA DIR/SP/G HT/PER HT/PER/DIR (UTC) (F) (DEG/KT/KT) (MB) (FT/S) (FT/S/D) BUOY 41004 2150 59 74 320/ 12/ 16 1020.0R 3/ 5 2/130/ 8 BUOY 41008 2150 61 65 360/ 10/ 12 1021.0R 2/ 8 2/110/ 8 FOLLY BEACH CMAN 2100 60 340/ 7/ 9 1021.2R CAPERS NEARSHORE 2108 59 63 310/ 12/ 16 1020.1S FRIPP NEARSHORE 2108 60 64 330/ 10/ 14 1020.6R STATION/POSITION TIME TEMP WIND PRES WAVE SWELL AIR SEA DIR/SP/G HT/PER HT/PER/DIR (UTC) (F) (DEG/KT/KT) (MB) (FT/S) (FT/S/D) 5E ST. MARYS GA 2100 67 N/A 2/ 9 FRYING PAN BUOY 2150 58 74 310/ 12/ 16 1019.5S 3/ 5 2/140/ 9 BUOY 41025 2150 55 76 310/ 12/ 17 1018.0F 3/ 7 3/140/ 7 CAPE LOOKOUT NC 2100 57 290/ 10/ 13 1018.2S BUOY 41002 2150 70 74 320/ 12/ 17 1017.3R 4/ 7 3/270/ 7 BUOY 41010 NOT AVBL ST AUGUSTINE FL 2200 62 67 10/ 8/ 9 1021.7R $$

USA.gov is the U.S. government's official web portal to all federal, state and local government web resources and services.